User: anonymous
Location: Norwich
(52.6280°N, 1.3030°E)
Time: 15:07:24
(UTC+01:00)
Language:

Meteor 1-22 Rocket - Orbit

View from above orbital plane
View from above orbital plane
View from above satellite
View from above satellite

Ground track
Ground track

The orbit data is extracted from the following two-line orbital elements,

1 08294U 75087B   14264.12810725 -.00000083  00000-0 -52364-4 0   777
2 08294 081.2153 277.2614 0104538 343.2253 077.4477 14.08498612  4077
Epoch (UTC): 21 September 2014 03:04:28
Eccentricity: 0.0104538
inclination: 81.2153°
perigee height: 789 km
apogee height: 940 km
right ascension of ascending node: 277.2614°
argument of perigee: 343.2253°
revolutions per day: 14.08498612
mean anomaly at epoch: 77.4477°
orbit number at epoch: 407

The dashed part of the orbit path shows where the satellite is in the earth's shadow,  

DLR